Wetterdaten: Freitag, 06.03.2015
Datum Zeit Temp. A. Feuchte A. Luftdruck Regen Wind Richtung Richtung Sonnenschein ET UV Solar Taupunkt Windchill Windben Empfang
06.03.2015 00:00 -1,2 C 80 % 1035,9 hPa 0,0 l/m 0,0 km/h (0 Bft) SW 234 0 min 0,000 mm 0,0 UV-I 0 W/m -4,2 C -1,2 C 0,0 km/h (0 Bft) 0,00 %
06.03.2015 00:15 -1,3 C 78 % 1036,0 hPa 0,0 l/m 0,0 km/h (0 Bft) S-SW 201 0 min 0,000 mm 0,0 UV-I 0 W/m -4,6 C -1,3 C 0,0 km/h (0 Bft) 0,00 %
06.03.2015 00:30 -1,3 C 78 % 1036,0 hPa 0,0 l/m 0,0 km/h (0 Bft) S 190 0 min 0,000 mm 0,0 UV-I 0 W/m -4,6 C -1,3 C 0,0 km/h (0 Bft) 0,00 %
06.03.2015 00:45 -1,0 C 76 % 1036,0 hPa 0,0 l/m 0,0 km/h (0 Bft) S-SW 211 0 min 0,000 mm 0,0 UV-I 0 W/m -4,7 C -1,0 C 0,0 km/h (0 Bft) 0,00 %
06.03.2015 01:00 -0,9 C 76 % 1036,1 hPa 0,0 l/m 0,0 km/h (0 Bft) SW 224 0 min 0,000 mm 0,0 UV-I 0 W/m -4,6 C -0,9 C 0,0 km/h (0 Bft) 0,00 %
06.03.2015 01:15 -0,7 C 74 % 1036,1 hPa 0,0 l/m 0,0 km/h (0 Bft) SW 228 0 min 0,000 mm 0,0 UV-I 0 W/m -4,7 C -0,7 C 0,0 km/h (0 Bft) 0,00 %
06.03.2015 01:30 -0,4 C 70 % 1036,0 hPa 0,0 l/m 0,0 km/h (0 Bft) S 188 0 min 0,000 mm 0,0 UV-I 0 W/m -5,2 C -0,4 C 0,0 km/h (0 Bft) 0,00 %
06.03.2015 01:45 -0,3 C 71 % 1036,0 hPa 0,0 l/m 0,0 km/h (0 Bft) S-SW 197 0 min 0,000 mm 0,0 UV-I 0 W/m -4,9 C -0,3 C 0,0 km/h (0 Bft) 0,00 %
06.03.2015 02:00 -0,2 C 70 % 1035,8 hPa 0,0 l/m 0,0 km/h (0 Bft) W-SW 252 0 min 0,000 mm 0,0 UV-I 0 W/m -5,0 C -0,2 C 0,0 km/h (0 Bft) 0,00 %
06.03.2015 02:15 -0,2 C 72 % 1035,7 hPa 0,0 l/m 0,0 km/h (0 Bft) O-SO 105 0 min 0,000 mm 0,0 UV-I 0 W/m -4,6 C -0,2 C 0,0 km/h (0 Bft) 0,00 %
06.03.2015 02:30 -0,1 C 73 % 1035,7 hPa 0,0 l/m 0,0 km/h (0 Bft) S 172 0 min 0,000 mm 0,0 UV-I 0 W/m -4,3 C -0,1 C 0,0 km/h (0 Bft) 0,00 %
06.03.2015 02:45 -0,1 C 73 % 1035,7 hPa 0,0 l/m 0,0 km/h (0 Bft) S-SW 195 0 min 0,000 mm 0,0 UV-I 0 W/m -4,3 C -0,1 C 0,0 km/h (0 Bft) 0,00 %
06.03.2015 03:00 -0,1 C 73 % 1035,8 hPa 0,0 l/m 0,0 km/h (0 Bft) SW 216 0 min 0,000 mm 0,0 UV-I 0 W/m -4,3 C -0,1 C 0,0 km/h (0 Bft) 0,00 %
06.03.2015 03:15 -0,2 C 74 % 1036,1 hPa 0,0 l/m 0,0 km/h (0 Bft) S 188 0 min 0,000 mm 0,0 UV-I 0 W/m -4,3 C -0,2 C 0,0 km/h (0 Bft) 0,00 %
06.03.2015 03:30 -0,3 C 74 % 1035,8 hPa 0,0 l/m 0,0 km/h (0 Bft) S 190 0 min 0,000 mm 0,0 UV-I 0 W/m -4,4 C -0,3 C 0,0 km/h (0 Bft) 0,00 %
06.03.2015 03:45 -0,3 C 74 % 1035,9 hPa 0,0 l/m 0,0 km/h (0 Bft) S-SW 206 0 min 0,000 mm 0,0 UV-I 0 W/m -4,4 C -0,3 C 0,0 km/h (0 Bft) 0,00 %
06.03.2015 04:00 -0,3 C 74 % 1036,2 hPa 0,0 l/m 0,0 km/h (0 Bft) W-SW 251 0 min 0,000 mm 0,0 UV-I 0 W/m -4,4 C -0,3 C 0,0 km/h (0 Bft) 0,00 %
06.03.2015 04:15 -0,2 C 72 % 1036,3 hPa 0,0 l/m 1,8 km/h (1 Bft) W-SW 240 0 min 0,000 mm 0,0 UV-I 0 W/m -4,6 C -0,2 C 4,0 km/h (1 Bft) 0,00 %
06.03.2015 04:30 -0,1 C 72 % 1036,1 hPa 0,0 l/m 0,0 km/h (0 Bft) SW 225 0 min 0,000 mm 0,0 UV-I 0 W/m -4,5 C -0,1 C 0,0 km/h (0 Bft) 0,00 %
06.03.2015 04:45 -0,3 C 74 % 1036,4 hPa 0,0 l/m 0,0 km/h (0 Bft) SW 216 0 min 0,000 mm 0,0 UV-I 0 W/m -4,4 C -0,3 C 0,0 km/h (0 Bft) 0,00 %
06.03.2015 05:00 -0,3 C 76 % 1036,4 hPa 0,0 l/m 0,0 km/h (0 Bft) SW 221 0 min 0,000 mm 0,0 UV-I 0 W/m -4,0 C -0,3 C 0,0 km/h (0 Bft) 0,00 %
06.03.2015 05:15 -0,4 C 78 % 1036,1 hPa 0,0 l/m 0,0 km/h (0 Bft) S 188 0 min 0,000 mm 0,0 UV-I 0 W/m -3,8 C -0,4 C 0,0 km/h (0 Bft) 0,00 %
06.03.2015 05:30 -0,5 C 80 % 1036,2 hPa 0,0 l/m 0,0 km/h (0 Bft) S-SW 205 0 min 0,000 mm 0,0 UV-I 0 W/m -3,5 C -0,5 C 0,0 km/h (0 Bft) 0,00 %
06.03.2015 05:45 -0,5 C 79 % 1036,3 hPa 0,0 l/m 0,0 km/h (0 Bft) W-SW 242 0 min 0,000 mm 0,0 UV-I 0 W/m -3,7 C -0,5 C 0,0 km/h (0 Bft) 0,00 %
06.03.2015 06:00 -0,5 C 78 % 1036,6 hPa 0,0 l/m 0,0 km/h (0 Bft) S-SW 196 0 min 0,000 mm 0,0 UV-I 0 W/m -3,9 C -0,5 C 0,0 km/h (0 Bft) 0,00 %
06.03.2015 06:15 -0,5 C 77 % 1036,6 hPa 0,0 l/m 0,0 km/h (0 Bft) W-SW 253 0 min 0,000 mm 0,0 UV-I 0 W/m -4,0 C -0,5 C 0,0 km/h (0 Bft) 0,00 %
06.03.2015 06:30 -0,5 C 76 % 1036,6 hPa 0,0 l/m 0,0 km/h (0 Bft) W-SW 250 0 min 0,000 mm 0,0 UV-I 0 W/m -4,2 C -0,5 C 0,0 km/h (0 Bft) 0,00 %
06.03.2015 06:45 -0,5 C 76 % 1036,6 hPa 0,0 l/m 0,0 km/h (0 Bft) S 178 0 min 0,000 mm 0,0 UV-I 1 W/m -4,2 C -0,5 C 0,0 km/h (0 Bft) 0,00 %
06.03.2015 07:00 -0,3 C 75 % 1036,9 hPa 0,0 l/m 0,0 km/h (0 Bft) S-SW 196 0 min 0,000 mm 0,0 UV-I 18 W/m -4,2 C -0,3 C 0,0 km/h (0 Bft) 0,00 %
06.03.2015 07:15 -0,1 C 74 % 1037,0 hPa 0,0 l/m 0,0 km/h (0 Bft) S 177 0 min 0,000 mm 1,0 UV-I 32 W/m -4,2 C -0,1 C 0,0 km/h (0 Bft) 0,00 %
06.03.2015 07:30 0,2 C 73 % 1037,0 hPa 0,0 l/m 0,0 km/h (0 Bft) O 91 0 min 0,000 mm 1,0 UV-I 45 W/m -4,1 C 0,2 C 0,0 km/h (0 Bft) 0,00 %
06.03.2015 07:45 0,4 C 73 % 1037,3 hPa 0,0 l/m 0,0 km/h (0 Bft) O-NO 57 0 min 0,000 mm 1,0 UV-I 53 W/m -3,9 C 0,4 C 0,0 km/h (0 Bft) 0,00 %
06.03.2015 08:00 0,6 C 73 % 1037,5 hPa 0,0 l/m 0,0 km/h (0 Bft) SW 214 0 min 0,000 mm 1,0 UV-I 72 W/m -3,7 C 0,6 C 0,0 km/h (0 Bft) 0,00 %
06.03.2015 08:15 1,0 C 72 % 1037,5 hPa 0,0 l/m 0,7 km/h (0 Bft) SW 216 0 min 0,000 mm 1,0 UV-I 91 W/m -3,5 C 1,0 C 4,0 km/h (1 Bft) 0,00 %
06.03.2015 08:30 1,2 C 72 % 1037,4 hPa 0,0 l/m 0,0 km/h (0 Bft) W-SW 251 0 min 0,000 mm 1,0 UV-I 98 W/m -3,3 C 1,2 C 0,0 km/h (0 Bft) 0,00 %
06.03.2015 08:45 1,6 C 70 % 1037,4 hPa 0,0 l/m 0,0 km/h (0 Bft) SW 229 0 min 0,000 mm 2,0 UV-I 124 W/m -3,3 C 1,6 C 0,0 km/h (0 Bft) 0,00 %
06.03.2015 09:00 2,3 C 72 % 1037,6 hPa 0,0 l/m 1,8 km/h (1 Bft) W-SW 240 0 min 0,000 mm 2,0 UV-I 142 W/m -2,2 C 2,3 C 4,0 km/h (1 Bft) 0,00 %
06.03.2015 09:15 2,6 C 71 % 1037,7 hPa 0,0 l/m 0,7 km/h (0 Bft) W-SW 256 0 min 0,000 mm 2,0 UV-I 155 W/m -2,1 C 2,6 C 4,0 km/h (1 Bft) 0,00 %
06.03.2015 09:30 3,3 C 68 % 1037,4 hPa 0,0 l/m 0,0 km/h (0 Bft) S-SW 192 0 min 0,000 mm 2,0 UV-I 174 W/m -2,0 C 3,3 C 0,0 km/h (0 Bft) 0,00 %
06.03.2015 09:45 3,6 C 66 % 1037,6 hPa 0,0 l/m 4,7 km/h (1 Bft) W-SW 253 0 min 0,000 mm 2,0 UV-I 163 W/m -2,1 C 3,6 C 7,9 km/h (2 Bft) 0,00 %
06.03.2015 10:00 4,6 C 61 % 1037,3 hPa 0,0 l/m 3,2 km/h (1 Bft) NW 312 0 min 0,000 mm 2,0 UV-I 219 W/m -2,3 C 4,6 C 7,9 km/h (2 Bft) 0,00 %
06.03.2015 10:15 4,4 C 62 % 1037,5 hPa 0,0 l/m 0,4 km/h (0 Bft) O-SO 109 0 min 0,000 mm 2,0 UV-I 222 W/m -2,2 C 4,4 C 4,0 km/h (1 Bft) 0,00 %
06.03.2015 10:30 4,4 C 62 % 1037,5 hPa 0,0 l/m 9,0 km/h (2 Bft) SW 219 0 min 0,000 mm 2,0 UV-I 227 W/m -2,2 C 2,2 C 15,8 km/h (3 Bft) 0,00 %
06.03.2015 10:45 4,6 C 61 % 1037,5 hPa 0,0 l/m 4,3 km/h (1 Bft) SW 225 0 min 0,000 mm 2,0 UV-I 235 W/m -2,3 C 4,6 C 7,9 km/h (2 Bft) 0,00 %
06.03.2015 11:00 4,7 C 62 % 1037,3 hPa 0,0 l/m 1,8 km/h (1 Bft) W-SW 256 0 min 0,000 mm 3,0 UV-I 247 W/m -1,9 C 4,7 C 4,0 km/h (1 Bft) 0,00 %
06.03.2015 11:15 4,7 C 62 % 1037,4 hPa 0,0 l/m 4,3 km/h (1 Bft) W-NW 302 0 min 0,000 mm 2,0 UV-I 279 W/m -1,9 C 4,7 C 7,9 km/h (2 Bft) 0,00 %
06.03.2015 11:30 4,7 C 61 % 1037,2 hPa 0,0 l/m 6,5 km/h (2 Bft) W-SW 251 0 min 0,000 mm 3,0 UV-I 199 W/m -2,2 C 4,6 C 7,9 km/h (2 Bft) 0,00 %
06.03.2015 11:45 4,9 C 61 % 1036,8 hPa 0,0 l/m 1,4 km/h (1 Bft) S-SW 204 0 min 0,000 mm 2,0 UV-I 215 W/m -2,0 C 4,9 C 4,0 km/h (1 Bft) 0,00 %
06.03.2015 12:00 5,4 C 60 % 1036,7 hPa 0,0 l/m 2,9 km/h (1 Bft) S 172 0 min 0,000 mm 3,0 UV-I 183 W/m -1,7 C 5,4 C 4,0 km/h (1 Bft) 0,00 %
06.03.2015 12:15 6,3 C 55 % 1036,5 hPa 0,0 l/m 1,8 km/h (1 Bft) SW 229 0 min 0,000 mm 2,0 UV-I 224 W/m -2,1 C 6,3 C 4,0 km/h (1 Bft) 0,00 %
06.03.2015 12:30 6,1 C 52 % 1036,4 hPa 0,0 l/m 2,2 km/h (1 Bft) N-NO 15 0 min 0,000 mm 2,0 UV-I 278 W/m -3,0 C 6,1 C 4,0 km/h (1 Bft) 0,00 %
06.03.2015 12:45 5,4 C 54 % 1036,6 hPa 0,0 l/m 1,4 km/h (1 Bft) SW 221 0 min 0,000 mm 1,0 UV-I 151 W/m -3,1 C 5,4 C 4,0 km/h (1 Bft) 0,00 %
06.03.2015 13:00 5,2 C 54 % 1036,5 hPa 0,0 l/m 0,7 km/h (0 Bft) W-SW 252 0 min 0,000 mm 1,0 UV-I 131 W/m -3,3 C 5,2 C 4,0 km/h (1 Bft) 0,00 %
06.03.2015 13:15 5,5 C 53 % 1036,4 hPa 0,0 l/m 5,4 km/h (1 Bft) W-SW 253 0 min 0,000 mm 1,0 UV-I 157 W/m -3,3 C 5,5 C 7,9 km/h (2 Bft) 0,00 %
06.03.2015 13:30 5,3 C 53 % 1036,2 hPa 0,0 l/m 0,7 km/h (0 Bft) NW 304 0 min 0,000 mm 2,0 UV-I 117 W/m -3,5 C 5,3 C 4,0 km/h (1 Bft) 0,00 %
06.03.2015 13:45 5,9 C 53 % 1035,7 hPa 0,0 l/m 2,9 km/h (1 Bft) SW 224 0 min 0,000 mm 2,0 UV-I 224 W/m -2,9 C 5,9 C 4,0 km/h (1 Bft) 0,00 %
06.03.2015 14:00 6,3 C 50 % 1035,8 hPa 0,0 l/m 1,8 km/h (1 Bft) W-SW 256 0 min 0,000 mm 2,0 UV-I 206 W/m -3,3 C 6,3 C 4,0 km/h (1 Bft) 0,00 %
06.03.2015 14:15 6,2 C 50 % 1035,5 hPa 0,0 l/m 0,0 km/h (0 Bft) O-SO 114 0 min 0,000 mm 2,0 UV-I 229 W/m -3,4 C 6,2 C 0,0 km/h (0 Bft) 0,00 %
06.03.2015 14:30 6,3 C 52 % 1035,6 hPa 0,0 l/m 2,2 km/h (1 Bft) W-SW 256 0 min 0,000 mm 2,0 UV-I 170 W/m -2,8 C 6,3 C 4,0 km/h (1 Bft) 0,00 %
06.03.2015 14:45 6,2 C 50 % 1035,5 hPa 0,0 l/m 2,9 km/h (1 Bft) W-NW 289 0 min 0,000 mm 1,0 UV-I 166 W/m -3,4 C 6,2 C 4,0 km/h (1 Bft) 0,00 %
06.03.2015 15:00 6,0 C 51 % 1035,5 hPa 0,0 l/m 0,7 km/h (0 Bft) W-SW 255 0 min 0,000 mm 2,0 UV-I 125 W/m -3,4 C 6,0 C 4,0 km/h (1 Bft) 0,00 %
06.03.2015 15:15 6,0 C 50 % 1035,4 hPa 0,0 l/m 0,4 km/h (0 Bft) W-SW 256 0 min 0,000 mm 1,0 UV-I 139 W/m -3,6 C 6,0 C 4,0 km/h (1 Bft) 0,00 %
06.03.2015 15:30 5,6 C 50 % 1035,4 hPa 0,0 l/m 1,8 km/h (1 Bft) W-SW 255 0 min 0,000 mm 0,0 UV-I 107 W/m -4,0 C 5,6 C 4,0 km/h (1 Bft) 0,00 %
06.03.2015 15:45 5,4 C 52 % 1035,4 hPa 0,0 l/m 0,7 km/h (0 Bft) SW 226 0 min 0,000 mm 1,0 UV-I 49 W/m -3,7 C 5,4 C 4,0 km/h (1 Bft) 0,00 %
06.03.2015 16:00 5,6 C 52 % 1035,4 hPa 0,0 l/m 0,7 km/h (0 Bft) S 180 0 min 0,000 mm 1,0 UV-I 87 W/m -3,5 C 5,6 C 4,0 km/h (1 Bft) 0,00 %
06.03.2015 16:15 5,6 C 52 % 1035,1 hPa 0,0 l/m 0,0 km/h (0 Bft) W-SW 244 0 min 0,000 mm 1,0 UV-I 84 W/m -3,5 C 5,6 C 0,0 km/h (0 Bft) 0,00 %
06.03.2015 16:30 5,5 C 52 % 1035,1 hPa 0,0 l/m 0,4 km/h (0 Bft) S-SW 212 0 min 0,000 mm 1,0 UV-I 57 W/m -3,6 C 5,5 C 4,0 km/h (1 Bft) 0,00 %
06.03.2015 16:45 5,3 C 54 % 1035,0 hPa 0,0 l/m 0,0 km/h (0 Bft) SW 229 0 min 0,000 mm 0,0 UV-I 46 W/m -3,2 C 5,3 C 0,0 km/h (0 Bft) 0,00 %
06.03.2015 17:00 5,1 C 54 % 1035,1 hPa 0,0 l/m 1,8 km/h (1 Bft) S-SW 204 0 min 0,000 mm 0,0 UV-I 31 W/m -3,4 C 5,1 C 4,0 km/h (1 Bft) 0,00 %
06.03.2015 17:15 4,9 C 56 % 1035,4 hPa 0,0 l/m 1,8 km/h (1 Bft) SW 221 0 min 0,000 mm 0,0 UV-I 22 W/m -3,1 C 4,9 C 4,0 km/h (1 Bft) 0,00 %
06.03.2015 17:30 4,7 C 57 % 1035,5 hPa 0,0 l/m 0,7 km/h (0 Bft) S-SW 203 0 min 0,000 mm 0,0 UV-I 3 W/m -3,1 C 4,7 C 4,0 km/h (1 Bft) 0,00 %
06.03.2015 17:45 4,6 C 57 % 1035,6 hPa 0,0 l/m 1,4 km/h (1 Bft) W-SW 253 0 min 0,000 mm 0,0 UV-I 0 W/m -3,2 C 4,6 C 4,0 km/h (1 Bft) 0,00 %
06.03.2015 18:00 4,4 C 58 % 1035,9 hPa 0,0 l/m 2,9 km/h (1 Bft) W-SW 255 0 min 0,000 mm 0,0 UV-I 0 W/m -3,1 C 4,4 C 4,0 km/h (1 Bft) 0,00 %
06.03.2015 18:15 4,2 C 61 % 1035,9 hPa 0,0 l/m 1,4 km/h (1 Bft) W-SW 252 0 min 0,000 mm 0,0 UV-I 0 W/m -2,6 C 4,2 C 4,0 km/h (1 Bft) 0,00 %
06.03.2015 18:30 4,1 C 61 % 1036,1 hPa 0,0 l/m 0,4 km/h (0 Bft) W-SW 251 0 min 0,000 mm 0,0 UV-I 0 W/m -2,7 C 4,1 C 4,0 km/h (1 Bft) 0,00 %
06.03.2015 18:45 4,1 C 61 % 1036,4 hPa 0,0 l/m 0,0 km/h (0 Bft) SW 226 0 min 0,000 mm 0,0 UV-I 0 W/m -2,7 C 4,1 C 0,0 km/h (0 Bft) 0,00 %
06.03.2015 19:00 4,0 C 61 % 1036,7 hPa 0,0 l/m 0,7 km/h (0 Bft) W-SW 251 0 min 0,000 mm 0,0 UV-I 0 W/m -2,8 C 4,0 C 4,0 km/h (1 Bft) 0,00 %
06.03.2015 19:15 4,0 C 61 % 1036,6 hPa 0,0 l/m 3,2 km/h (1 Bft) W-NW 290 0 min 0,000 mm 0,0 UV-I 0 W/m -2,8 C 4,0 C 4,0 km/h (1 Bft) 0,00 %
06.03.2015 19:30 3,9 C 60 % 1036,8 hPa 0,0 l/m 0,4 km/h (0 Bft) S-SW 211 0 min 0,000 mm 0,0 UV-I 0 W/m -3,1 C 3,9 C 4,0 km/h (1 Bft) 0,00 %
06.03.2015 19:45 3,8 C 60 % 1036,7 hPa 0,0 l/m 0,0 km/h (0 Bft) SW 214 0 min 0,000 mm 0,0 UV-I 0 W/m -3,2 C 3,8 C 0,0 km/h (0 Bft) 0,00 %
06.03.2015 20:00 3,5 C 62 % 1037,0 hPa 0,0 l/m 0,0 km/h (0 Bft) S 185 0 min 0,000 mm 0,0 UV-I 0 W/m -3,1 C 3,5 C 0,0 km/h (0 Bft) 0,00 %
06.03.2015 20:15 3,4 C 64 % 1036,9 hPa 0,0 l/m 0,0 km/h (0 Bft) SW 221 0 min 0,000 mm 0,0 UV-I 0 W/m -2,7 C 3,4 C 0,0 km/h (0 Bft) 0,00 %
06.03.2015 20:30 3,3 C 64 % 1037,1 hPa 0,0 l/m 0,0 km/h (0 Bft) W-NW 302 0 min 0,000 mm 0,0 UV-I 0 W/m -2,8 C 3,3 C 0,0 km/h (0 Bft) 0,00 %
06.03.2015 20:45 3,3 C 64 % 1037,2 hPa 0,0 l/m 0,4 km/h (0 Bft) W-SW 251 0 min 0,000 mm 0,0 UV-I 0 W/m -2,8 C 3,3 C 4,0 km/h (1 Bft) 0,00 %
06.03.2015 21:00 3,5 C 62 % 1037,2 hPa 0,0 l/m 0,7 km/h (0 Bft) W-SW 252 0 min 0,000 mm 0,0 UV-I 0 W/m -3,1 C 3,5 C 4,0 km/h (1 Bft) 0,00 %
06.03.2015 21:15 3,5 C 62 % 1037,4 hPa 0,0 l/m 0,0 km/h (0 Bft) SW 219 0 min 0,000 mm 0,0 UV-I 0 W/m -3,1 C 3,5 C 0,0 km/h (0 Bft) 0,00 %
06.03.2015 21:30 3,4 C 64 % 1037,4 hPa 0,0 l/m 0,0 km/h (0 Bft) W-NW 290 0 min 0,000 mm 0,0 UV-I 0 W/m -2,7 C 3,4 C 0,0 km/h (0 Bft) 0,00 %
06.03.2015 21:45 3,2 C 65 % 1037,7 hPa 0,0 l/m 0,0 km/h (0 Bft) S-SW 212 0 min 0,000 mm 0,0 UV-I 0 W/m -2,7 C 3,2 C 0,0 km/h (0 Bft) 0,00 %
06.03.2015 22:00 3,1 C 66 % 1037,5 hPa 0,0 l/m 0,0 km/h (0 Bft) SW 218 0 min 0,000 mm 0,0 UV-I 0 W/m -2,6 C 3,1 C 0,0 km/h (0 Bft) 0,00 %
06.03.2015 22:15 3,0 C 66 % 1037,6 hPa 0,0 l/m 0,0 km/h (0 Bft) SW 219 0 min 0,000 mm 0,0 UV-I 0 W/m -2,7 C 3,0 C 0,0 km/h (0 Bft) 0,00 %
06.03.2015 22:30 2,9 C 67 % 1037,5 hPa 0,0 l/m 0,7 km/h (0 Bft) W-SW 256 0 min 0,000 mm 0,0 UV-I 0 W/m -2,6 C 2,9 C 4,0 km/h (1 Bft) 0,00 %
06.03.2015 22:45 2,9 C 67 % 1037,7 hPa 0,0 l/m 0,0 km/h (0 Bft) S-SW 210 0 min 0,000 mm 0,0 UV-I 0 W/m -2,6 C 2,9 C 0,0 km/h (0 Bft) 0,00 %
06.03.2015 23:00 2,8 C 67 % 1037,9 hPa 0,0 l/m 0,0 km/h (0 Bft) SW 231 0 min 0,000 mm 0,0 UV-I 0 W/m -2,7 C 2,8 C 0,0 km/h (0 Bft) 0,00 %
06.03.2015 23:15 2,7 C 68 % 1037,7 hPa 0,0 l/m 0,0 km/h (0 Bft) SW 221 0 min 0,000 mm 0,0 UV-I 0 W/m -2,6 C 2,7 C 0,0 km/h (0 Bft) 0,00 %
06.03.2015 23:30 2,6 C 69 % 1037,6 hPa 0,0 l/m 0,0 km/h (0 Bft) S 191 0 min 0,000 mm 0,0 UV-I 0 W/m -2,5 C 2,6 C 0,0 km/h (0 Bft) 0,00 %
06.03.2015 23:45 2,4 C 66 % 1037,4 hPa 0,0 l/m 0,0 km/h (0 Bft) SW 225 0 min 0,000 mm 0,0 UV-I 0 W/m -3,3 C 2,4 C 0,0 km/h (0 Bft) 0,00 %
_ Min-Zeit 00:15 14:00 16:45 - 00:00 - - - - - - 01:30 00:15 00:00 00:00
Minimum _ -1,3 C 50 % 1035,0 hPa - 0,0 km/h (0 Bft) - - - - - - -5,2 C -1,3 C 0,0 km/h (0 Bft) 0,00 %
_ Max-Zeit 12:15 00:00 23:00 00:00 10:30 - - 00:00 00:00 11:00 11:15 12:00 12:15 10:30 00:00
Maximum _ 6,3 C 80 % 1037,9 hPa 0,0 l/m 9,0 km/h
SW (2 Bft)
- - 0 min 0,000 mm 3,0 UV-I 279 W/m -1,7 C 6,3 C 15,8 km/h
SW (3 Bft)
0,00 %
Durchschnitt _ 2,7 C 65 % 1036,5 hPa #0,0 l/m 0,9 km/h (0 Bft) W-SW - #0 min. #0,000 mm 1,7 UV-I 136 W/m -3,4 C 2,7 C 2,2 km/h (1 Bft) 0,00 %